Change the Weather History Date:

Monday, April 29, 2013

  Actual Average Record
Temperature  
Mean Temperature 54 °F -  
Max Temperature 61 °F 56 °F 80 °F (2004)
Min Temperature 46 °F 36 °F 24 °F (2001)
Degree Days  
Heating Degree Days 12    
Growing Degree Days 4 (Base 50)    
Moisture  
Dew Point 49 °F    
Average Humidity 90    
Maximum Humidity 100    
Minimum Humidity 69    
Precipitation  
Precipitation 0.00 in - - ()
Sea Level Pressure  
Sea Level Pressure 29.88 in    
Wind  
Wind Speed 3 mph (ESE)    
Max Wind Speed 10 mph    
Max Gust Speed -    
Visibility 6 miles    
Events Fog , Rain    
Averages and records for this station are not official NWS values.
T = Trace of Precipitation, MM = Missing Value Source: NWS Daily Summary

Daily Weather History Graph

Daily Weather History Graph

Search for Another Location

Airport or City:

Trip Planner

Search our weather history database for the weather conditions in past years. The results will help you decide how hot, cold, wet, or windy it might be!

Date:

Astronomy

Apr. 29, 2013 Rise Set
Actual Time 6:26 AM EDT 8:35 PM EDT
Civil Twilight 5:55 AM EDT 9:07 PM EDT
Nautical Twilight 5:15 AM EDT 9:47 PM EDT
Astronomical Twilight 4:32 AM EDT 10:30 PM EDT
Moon 12:08 AM EDT (4/29) 9:42 AM EDT (4/29)
Length of Visible Light 15h 12m
Length of Day
14h 09m
Waning Gibbous, 80% of the Moon is Illuminated
Apr 29
Waning Gibbous
May 2
Last Quarter
May 9
New
May 18
First Quarter
May 25
Full

Hourly Weather History & Observations

Time (EDT) Temp. Dew Point Humidity Pressure Visibility Wind Dir Wind Speed Gust Speed Precip Events Conditions
12:14 AM 48.2 °F 47.7 °F 98% 29.87 in 2.5 mi ESE 3.5 mph - N/A   Overcast
12:34 AM 48.4 °F 48.2 °F 99% 29.87 in 1.8 mi ESE 4.6 mph - N/A   Overcast
12:54 AM 48.4 °F 48.0 °F 99% 29.86 in 2.0 mi SE 4.6 mph - N/A   Overcast
1:14 AM 48.2 °F 47.7 °F 98% 29.86 in 1.2 mi SE 3.5 mph - N/A   Overcast
1:34 AM 48.2 °F 47.8 °F 99% 29.86 in 0.5 mi Calm Calm - N/A Fog Fog
1:54 AM 48.0 °F 47.7 °F 99% 29.86 in 0.5 mi Calm Calm - N/A Fog Fog
2:14 AM 47.8 °F 47.5 °F 99% 29.86 in 0.2 mi Calm Calm - N/A Fog Fog
2:34 AM 47.3 °F 47.3 °F 100% 29.86 in 0.2 mi Calm Calm - N/A Fog Fog
2:54 AM 46.9 °F 46.8 °F 99% 29.85 in 0.2 mi Calm Calm - N/A Fog Fog
3:14 AM 46.9 °F 46.8 °F 99% 29.85 in 0.2 mi Calm Calm - N/A Fog Fog
3:34 AM 47.3 °F 46.9 °F 99% 29.85 in 0.2 mi Calm Calm - N/A Fog Fog
3:54 AM 47.3 °F 46.9 °F 99% 29.85 in 0.2 mi Calm Calm - N/A Fog Fog
4:14 AM 46.9 °F 46.8 °F 99% 29.85 in 0.2 mi Calm Calm - N/A Fog Fog
4:34 AM 46.9 °F 46.8 °F 99% 29.85 in 0.2 mi Calm Calm - N/A Fog Fog
4:54 AM 47.3 °F 47.3 °F 100% 29.86 in 0.2 mi Calm Calm - N/A Fog Fog
5:14 AM 47.3 °F 47.3 °F 100% 29.85 in 0.2 mi Calm Calm - N/A Fog Fog
5:34 AM 47.5 °F 47.3 °F 99% 29.86 in 0.2 mi Calm Calm - N/A Fog Fog
5:54 AM 47.7 °F 47.5 °F 99% 29.87 in 0.2 mi Calm Calm - N/A Fog Fog
6:14 AM 47.5 °F 47.5 °F 100% 29.86 in 0.5 mi Calm Calm - N/A Fog Fog
6:34 AM 47.7 °F 47.7 °F 100% 29.87 in 0.5 mi Calm Calm - N/A Fog Fog
6:54 AM 47.8 °F 47.7 °F 99% 29.88 in 1.2 mi Calm Calm - N/A   Overcast
7:14 AM 48.2 °F 47.8 °F 99% 29.88 in 2.0 mi Calm Calm - N/A   Overcast
7:34 AM 48.4 °F 48.4 °F 100% 29.88 in 2.5 mi Calm Calm - N/A   Overcast
7:54 AM 48.7 °F 48.6 °F 99% 29.88 in 2.5 mi Calm Calm - N/A   Overcast
8:14 AM 49.3 °F 49.1 °F 99% 29.89 in 2.5 mi Calm Calm - N/A   Overcast
8:34 AM 49.8 °F 49.6 °F 99% 29.89 in 2.5 mi Calm Calm - N/A   Overcast
8:54 AM 50.5 °F 50.4 °F 99% 29.90 in 3.0 mi Calm Calm - N/A   Overcast
9:14 AM 52.7 °F 52.5 °F 99% 29.90 in 7.0 mi Calm Calm - N/A   Overcast
9:34 AM 53.1 °F 52.0 °F 96% 29.90 in 10.0 mi Calm Calm - N/A   Overcast
9:54 AM 53.8 °F 52.0 °F 94% 29.90 in 10.0 mi West 5.8 mph - N/A   Overcast
10:14 AM 54.1 °F 51.4 °F 91% 29.90 in 10.0 mi West 3.5 mph - N/A   Overcast
10:34 AM 54.3 °F 51.4 °F 90% 29.90 in 10.0 mi WNW 3.5 mph - N/A   Overcast
10:54 AM 54.7 °F 51.3 °F 88% 29.90 in 10.0 mi Calm Calm - N/A   Overcast
11:14 AM 55.6 °F 51.1 °F 85% 29.90 in 10.0 mi SSW 3.5 mph - N/A   Overcast
11:34 AM 55.8 °F 50.9 °F 84% 29.90 in 10.0 mi Calm Calm - N/A   Overcast
11:54 AM 56.1 °F 51.3 °F 84% 29.90 in 10.0 mi ESE 6.9 mph - N/A   Overcast
12:14 PM 55.8 °F 50.7 °F 83% 29.90 in 10.0 mi ESE 8.1 mph - N/A   Overcast
12:34 PM 57.7 °F 50.7 °F 77% 29.89 in 10.0 mi ESE 8.1 mph - N/A   Overcast
12:54 PM 59.0 °F 51.4 °F 76% 29.90 in 10.0 mi SE 8.1 mph - N/A   Mostly Cloudy
1:14 PM 58.3 °F 50.7 °F 76% 29.90 in 10.0 mi ESE 9.2 mph - N/A   Mostly Cloudy
1:34 PM 57.9 °F 50.5 °F 76% 29.89 in 10.0 mi SE 8.1 mph - N/A   Mostly Cloudy
1:54 PM 59.0 °F 50.9 °F 74% 29.89 in 10.0 mi ESE 9.2 mph - N/A   Scattered Clouds
2:14 PM 59.4 °F 50.9 °F 74% 29.89 in 10.0 mi ESE 9.2 mph - N/A   Clear
2:34 PM 59.9 °F 51.1 °F 73% 29.89 in 10.0 mi ESE 9.2 mph - N/A   Clear
2:54 PM 60.4 °F 50.9 °F 71% 29.89 in 10.0 mi ESE 9.2 mph - N/A   Clear
3:14 PM 60.1 °F 50.9 °F 72% 29.89 in 10.0 mi SE 10.4 mph - N/A   Clear
3:34 PM 61.0 °F 50.9 °F 69% 29.88 in 10.0 mi SE 8.1 mph - N/A   Clear
3:54 PM 61.3 °F 50.9 °F 69% 29.88 in 10.0 mi SSE 6.9 mph - N/A   Clear
4:14 PM 59.9 °F 50.4 °F 71% 29.88 in 10.0 mi ESE 10.4 mph - N/A   Clear
4:34 PM 58.3 °F 50.2 °F 74% 29.87 in 10.0 mi ESE 6.9 mph - N/A   Clear
4:54 PM 58.1 °F 50.0 °F 74% 29.87 in 10.0 mi ESE 9.2 mph - N/A   Clear
5:14 PM 57.7 °F 50.2 °F 76% 29.88 in 10.0 mi ESE 6.9 mph - N/A   Clear
5:34 PM 56.8 °F 49.6 °F 77% 29.88 in 10.0 mi ESE 8.1 mph - N/A   Clear
5:54 PM 54.7 °F 49.1 °F 81% 29.88 in 10.0 mi SE 9.2 mph - N/A   Scattered Clouds
6:14 PM 52.9 °F 48.2 °F 84% 29.88 in 10.0 mi ESE 10.4 mph - N/A   Scattered Clouds
6:34 PM 52.2 °F 48.2 °F 86% 29.88 in 10.0 mi SE 8.1 mph - N/A   Scattered Clouds
6:54 PM 51.3 °F 47.7 °F 87% 29.88 in 10.0 mi ESE 5.8 mph - N/A   Clear
7:14 PM 51.4 °F 47.8 °F 87% 29.88 in 10.0 mi SE 3.5 mph - N/A   Clear
7:34 PM 50.4 °F 47.1 °F 89% 29.88 in 10.0 mi East 3.5 mph - N/A   Clear
7:54 PM 49.5 °F 46.8 °F 90% 29.88 in 10.0 mi East 4.6 mph - N/A   Clear
8:14 PM 49.8 °F 47.3 °F 91% 29.89 in 10.0 mi Calm Calm - N/A   Scattered Clouds
8:34 PM 49.6 °F 47.3 °F 92% 29.88 in 10.0 mi Calm Calm - N/A   Mostly Cloudy
8:54 PM 49.5 °F 47.3 °F 92% 29.88 in 10.0 mi East 3.5 mph - N/A   Scattered Clouds
9:14 PM 49.5 °F 47.5 °F 93% 29.89 in 7.0 mi ESE 4.6 mph - N/A   Clear
9:34 PM 49.3 °F 47.5 °F 94% 29.89 in 7.0 mi East 4.6 mph - N/A   Scattered Clouds
9:54 PM 49.3 °F 47.5 °F 94% 29.90 in 7.0 mi ENE 4.6 mph - N/A   Overcast
10:14 PM 49.6 °F 48.2 °F 95% 29.90 in 7.0 mi East 3.5 mph - N/A   Overcast
10:34 PM 50.9 °F 49.3 °F 94% 29.90 in 7.0 mi ESE 5.8 mph - N/A   Overcast
10:54 PM 50.9 °F 49.3 °F 94% 29.90 in 7.0 mi ESE 4.6 mph - N/A Rain Light Rain
11:14 PM 50.9 °F 49.3 °F 94% 29.90 in 7.0 mi Calm Calm - N/A   Overcast
11:34 PM 51.3 °F 49.5 °F 94% 29.90 in 7.0 mi SE 3.5 mph - N/A   Overcast
11:54 PM 51.6 °F 49.6 °F 93% 29.91 in 7.0 mi SSE 3.5 mph - N/A   Overcast